[[{"header":{"parameterUnit":"m.s-1","parameterCategory":1,"la1":30.2991,"la2":30.254,"lo1":-89.0895,"lo2":-89.0444,"dy":0.0017,"dx":0.0017,"nx":28,"ny":28,"refTime":"2024-11-28T03:00:00:Z","depth":0,"parameterNumber":2,"parameterNumberName":"U-component_of_WINDS"},"data":[0,0,0,0,0,0,0,0,0,0,0,0,0,0,0,0,0,0,0,0,0,0,0,0,0,0,0,0,0,0,0,0,0,0,0,0,0,0,0,0,0,0,0,0,0,0,0,0,0,0,0,0,0,0,0,0,0,0,-0.0571,-0.0571,0,-0.0588,-0.0589,-0.0589,-0.059,-0.0589,-0.0589,-0.0589,-0.0607,-0.0607,-0.0608,0,0,0,0,0,0,0,0,0,0,0,0,0,-0.0539,-0.054,-0.0571,-0.0571,-0.0572,-0.0588,-0.0589,-0.0589,-0.059,-0.0589,-0.0589,-0.0589,-0.0607,-0.0607,-0.0608,0,0,0,0,0,0,0,0,0,0,0,0,0,-0.0554,-0.054,-0.0571,-0.0574,-0.0574,-0.0588,-0.0589,-0.0589,-0.059,-0.0589,-0.0589,-0.0589,-0.0606,-0.0607,-0.0608,-0.062,0,0,-0.0611,-0.0612,0,0,0,0,0,0,0,0,-0.0553,-0.0556,-0.0573,-0.0574,-0.0574,-0.0587,-0.0584,-0.0599,-0.059,-0.0584,-0.0589,-0.0589,-0.06,-0.0602,-0.0606,-0.0621,-0.0622,-0.0611,-0.0612,-0.0612,-0.0613,0,0,0,0,0,0,0,-0.0552,-0.0555,-0.0578,-0.0574,-0.0574,-0.0574,-0.0576,-0.0587,-0.0594,-0.0584,-0.0585,-0.0587,-0.06,-0.0605,-0.0606,-0.0622,-0.0611,-0.0612,-0.0613,-0.0613,-0.0649,-0.0649,0,0,0,0,0,0,-0.0551,-0.0554,-0.0577,-0.0579,-0.0563,-0.0575,-0.0577,-0.0583,-0.0593,-0.0595,-0.0587,-0.0587,-0.0603,-0.0605,-0.0607,-0.0622,-0.0612,-0.0613,-0.0614,-0.0648,-0.0649,-0.0649,0,0,0,0,0,0,-0.055,-0.0553,-0.0577,-0.0566,-0.0569,-0.0576,-0.0582,-0.0583,-0.0588,-0.0595,-0.0596,-0.059,-0.0603,-0.0605,-0.0617,-0.0622,-0.0614,-0.0615,-0.0648,-0.0648,-0.0649,-0.0652,0,0,0,0,0,0,-0.0549,-0.0553,-0.0557,-0.0566,-0.057,-0.0587,-0.0583,-0.0584,-0.0589,-0.0589,-0.0598,-0.06,-0.0603,-0.0616,-0.0618,-0.0624,-0.0615,-0.0647,-0.0648,-0.0649,-0.0651,-0.0653,-0.0654,0,0,0,0,0,-0.0548,-0.0558,-0.0558,-0.056,-0.0576,-0.0587,-0.0589,-0.0593,-0.059,-0.0595,-0.0599,-0.0599,-0.0621,-0.0617,-0.0619,-0.0626,-0.0647,-0.0648,-0.0649,-0.0651,-0.0652,-0.0654,0,0,0,0,0,0,-0.0549,-0.0559,-0.0559,-0.0572,-0.0579,-0.0587,-0.0593,-0.0594,-0.0602,-0.0601,-0.0605,-0.0607,-0.0619,-0.0623,-0.0618,-0.0638,-0.0634,-0.0635,-0.0635,-0.0636,-0.0637,-0.0636,-0.0616,0,0,0,0,0,-0.0551,-0.0559,-0.0567,-0.0578,-0.0581,-0.0587,-0.0592,-0.0594,-0.0601,-0.0604,-0.061,-0.0617,-0.0625,-0.0631,-0.0639,-0.0652,-0.0654,-0.0657,-0.0658,-0.0659,-0.0661,-0.0668,-0.0669,-0.0652,-0.0652,-0.0652,0,0,-0.0555,-0.0561,-0.0566,-0.0578,-0.0583,-0.0592,-0.0589,-0.0598,-0.0605,-0.0605,-0.0617,-0.0621,-0.0629,-0.0642,-0.0647,-0.0646,-0.0666,-0.066,-0.0661,-0.0662,-0.0669,-0.067,-0.0672,-0.0652,-0.0652,-0.0652,0,0,-0.0566,-0.0571,-0.0581,-0.0586,-0.0595,-0.0598,-0.06,-0.0609,-0.0612,-0.0623,-0.0624,-0.0632,-0.0646,-0.0652,-0.0657,-0.067,-0.067,-0.0673,-0.0678,-0.0685,-0.0687,-0.0688,-0.0693,-0.0694,-0.0674,-0.0674,-0.0674,0,-0.0569,-0.0582,-0.0585,-0.0595,-0.06,-0.0601,-0.061,-0.0615,-0.0626,-0.063,-0.0628,-0.0646,-0.0651,-0.0665,-0.0668,-0.0672,-0.0675,-0.0672,-0.0686,-0.0687,-0.0689,-0.0693,-0.0695,-0.0674,-0.0674,-0.0674,-0.0674,0,-0.0586,-0.0595,-0.0602,-0.0612,-0.0618,-0.0627,-0.0632,-0.0638,-0.0639,-0.0643,-0.0654,-0.0661,-0.0671,-0.0674,-0.0675,-0.0688,-0.0687,-0.0685,-0.0681,-0.069,-0.0695,-0.0697,-0.0674,-0.0674,-0.0674,-0.0674,0,0,-0.06,-0.0611,-0.0613,-0.0618,-0.0627,-0.0634,-0.0643,-0.0653,-0.0658,-0.0665,-0.0673,-0.0685,-0.0684,-0.0689,-0.0691,-0.0697,-0.0707,-0.0695,-0.0695,-0.0697,-0.0722,-0.0723,-0.0725,-0.0707,-0.0708,-0.0708,-0.0721,0,-0.0612,-0.0629,-0.0632,-0.0646,-0.0654,-0.0655,-0.0663,-0.0669,-0.0673,-0.0681,-0.0685,-0.0693,-0.0691,-0.0694,-0.07,-0.0705,-0.0712,-0.0704,-0.0715,-0.0715,-0.0713,-0.0728,-0.0729,-0.0742,-0.0723,-0.0723,-0.0723,0,-0.0629,-0.0637,-0.0652,-0.066,-0.0664,-0.0671,-0.068,-0.0687,-0.0694,-0.0696,-0.0702,-0.0703,-0.0713,-0.0708,-0.0722,-0.0716,-0.072,-0.0723,-0.0724,-0.0726,-0.072,-0.073,-0.0745,-0.0748,-0.0726,-0.0726,-0.0726,0,-0.0638,-0.0652,-0.0663,-0.0667,-0.0676,-0.0681,-0.0685,-0.0692,-0.0697,-0.0705,-0.0708,-0.0717,-0.0722,-0.0728,-0.0732,-0.0728,-0.0745,-0.0741,-0.0747,-0.0747,-0.0751,-0.0751,-0.0768,-0.0754,-0.0753,-0.0753,-0.0753,0,-0.0652,-0.0662,-0.0667,-0.0674,-0.0684,-0.0687,-0.0697,-0.0701,-0.0708,-0.0715,-0.0716,-0.0723,-0.0727,-0.0735,-0.0737,-0.0748,-0.075,-0.0752,-0.0753,-0.0753,-0.0753,-0.0756,-0.0756,-0.0754,-0.0754,-0.0754,-0.0754,0,-0.0664,-0.0668,-0.068,-0.0687,-0.0689,-0.0697,-0.0704,-0.071,-0.0714,-0.0723,-0.0726,-0.0731,-0.074,-0.0744,-0.0755,-0.0757,-0.0769,-0.0769,-0.0767,-0.0767,-0.0774,-0.0774,-0.0795,-0.0798,-0.078,-0.0781,-0.0781,0,-0.0673,-0.068,-0.0689,-0.0694,-0.0698,-0.0706,-0.0712,-0.0715,-0.072,-0.0729,-0.0734,-0.0743,-0.0751,-0.0765,-0.077,-0.0779,-0.0779,-0.0786,-0.078,-0.078,-0.078,-0.0779,-0.078,-0.0787,-0.0787,-0.0787,-0.0787,0,-0.0689,-0.0691,-0.0698,-0.0707,-0.0713,-0.072,-0.0726,-0.073,-0.0734,-0.074,-0.075,-0.0755,-0.0767,-0.0776,-0.0784,-0.0788,-0.0789,-0.0789,-0.0791,-0.0791,-0.079,-0.0791,-0.077,-0.0789,-0.0788,-0.0788,-0.0788,-0.0788,-0.07,-0.0707,-0.0714,-0.0722,-0.0727,-0.0733,-0.074,-0.0744,-0.0752,-0.0761,-0.0762,-0.0772,-0.0779,-0.079,-0.0795,-0.0803,-0.0801,-0.0804,-0.0805,-0.0806,-0.0806,-0.0788,-0.0804,-0.0804,-0.0804,-0.0804,-0.0804,0,-0.0717,-0.0721,-0.0729,-0.0738,-0.0745,-0.0744,-0.0751,-0.0756,-0.0765,-0.0771,-0.0778,-0.0789,-0.0797,-0.0803,-0.0811,-0.0817,-0.0817,-0.0819,-0.0819,-0.082,-0.0807,-0.0805,-0.0818,-0.0818,-0.0818,-0.0818,-0.0818,-0.0818,-0.0727,-0.0738,-0.074,-0.0753,-0.0757,-0.0767,-0.0771,-0.0776,-0.0781,-0.0793,-0.08,-0.0803,-0.0809,-0.0818,-0.0826,-0.0827,-0.0831,-0.0833,-0.0834,-0.0822,-0.0821,-0.0819,-0.0817,-0.0833,-0.0833,-0.0846,-0.0846,-0.0847]},{"header":{"parameterUnit":"m.s-1","parameterCategory":1,"la1":30.2991,"la2":30.254,"lo1":-89.0895,"lo2":-89.0444,"dy":0.0017,"dx":0.0017,"nx":28,"ny":28,"refTime":"2024-11-28T03:00:00:Z","depth":0,"parameterNumber":3,"parameterNumberName":"V-component_of_WINDS"},"data":[0,0,0,0,0,0,0,0,0,0,0,0,0,0,0,0,0,0,0,0,0,0,0,0,0,0,0,0,0,0,0,0,0,0,0,0,0,0,0,0,0,0,0,0,0,0,0,0,0,0,0,0,0,0,0,0,0,0,4.1949,4.1949,0,4.1979,4.1979,4.198,4.1983,4.1982,4.1982,4.1982,4.2014,4.2016,4.2017,0,0,0,0,0,0,0,0,0,0,0,0,0,4.1896,4.1897,4.1948,4.1949,4.1949,4.1979,4.1979,4.198,4.1983,4.1982,4.1982,4.1982,4.2014,4.2015,4.2017,0,0,0,0,0,0,0,0,0,0,0,0,0,4.1922,4.1897,4.1948,4.1954,4.1955,4.1979,4.1979,4.198,4.1983,4.1982,4.1982,4.1981,4.2014,4.2015,4.2017,4.2037,0,0,4.2022,4.2023,0,0,0,0,0,0,0,0,4.1921,4.1924,4.1953,4.1954,4.1955,4.1976,4.1973,4.1999,4.1983,4.1972,4.1982,4.1981,4.2002,4.2005,4.2012,4.2039,4.204,4.2023,4.2024,4.2024,4.2025,0,0,0,0,0,0,0,4.1919,4.1923,4.1961,4.1953,4.1955,4.1956,4.196,4.1978,4.199,4.1973,4.1973,4.1977,4.2003,4.201,4.2013,4.2041,4.2022,4.2024,4.2025,4.2026,4.209,4.209,0,0,0,0,0,0,4.1916,4.1921,4.196,4.1961,4.1936,4.1958,4.1961,4.197,4.1989,4.1992,4.1977,4.1977,4.2007,4.201,4.2014,4.2041,4.2024,4.2026,4.2027,4.2089,4.209,4.2091,0,0,0,0,0,0,4.1914,4.1919,4.1958,4.1941,4.1947,4.1959,4.1969,4.1971,4.1978,4.1993,4.1995,4.1982,4.2007,4.2011,4.2032,4.2042,4.2027,4.2028,4.2088,4.2089,4.209,4.2093,0,0,0,0,0,0,4.1913,4.1918,4.1925,4.1942,4.1947,4.1975,4.197,4.1972,4.1981,4.1981,4.1998,4.2,4.2007,4.2029,4.2034,4.2044,4.203,4.2088,4.2089,4.209,4.2093,4.2094,4.2096,0,0,0,0,0,4.1911,4.1925,4.1926,4.193,4.1956,4.1976,4.1979,4.1986,4.1982,4.199,4.1999,4.2,4.204,4.2032,4.2037,4.2047,4.2087,4.2088,4.209,4.2092,4.2094,4.2096,0,0,0,0,0,0,4.1909,4.1927,4.1928,4.1947,4.196,4.1976,4.1986,4.1988,4.2002,4.2001,4.201,4.2014,4.2035,4.2043,4.2033,4.207,4.2063,4.2066,4.2063,4.2065,4.2067,4.2065,4.2031,0,0,0,0,0,4.1911,4.1924,4.194,4.1955,4.1962,4.1973,4.1981,4.1986,4.1999,4.2005,4.2016,4.203,4.2046,4.2056,4.2072,4.2094,4.2099,4.2104,4.2106,4.2108,4.211,4.2125,4.2128,4.2095,4.2095,4.2095,0,0,4.1915,4.1926,4.1934,4.1955,4.1965,4.198,4.1977,4.1992,4.2004,4.2007,4.2028,4.2037,4.2053,4.2076,4.2086,4.2083,4.212,4.2109,4.211,4.2112,4.2127,4.213,4.2132,4.2096,4.2096,4.2096,0,0,4.1929,4.1939,4.1954,4.1965,4.1981,4.1988,4.1992,4.2009,4.2015,4.2036,4.2039,4.2054,4.2081,4.2093,4.2103,4.2126,4.2127,4.2131,4.2139,4.2154,4.2157,4.2159,4.2169,4.2172,4.2133,4.2133,4.2133,0,4.1932,4.1954,4.1961,4.1977,4.1987,4.1992,4.2008,4.2018,4.2039,4.2046,4.2043,4.2079,4.209,4.2116,4.2122,4.2129,4.2135,4.2128,4.2156,4.2158,4.216,4.217,4.2173,4.2133,4.2133,4.2133,4.2133,0,4.1957,4.1973,4.1983,4.2003,4.2014,4.203,4.2042,4.2053,4.2057,4.2066,4.2089,4.2103,4.2122,4.2129,4.2133,4.2157,4.2155,4.2154,4.2147,4.2164,4.2173,4.2176,4.2133,4.2133,4.2133,4.2133,0,0,4.197,4.1995,4.1999,4.2009,4.2028,4.2041,4.2059,4.2078,4.2088,4.2102,4.2118,4.2143,4.2142,4.2153,4.2159,4.2172,4.2192,4.217,4.217,4.2174,4.2222,4.2223,4.2227,4.2194,4.2194,4.2195,4.2221,0,4.1987,4.2017,4.2026,4.2052,4.2067,4.2073,4.2089,4.2103,4.2113,4.2128,4.2139,4.2157,4.2154,4.2161,4.2174,4.2187,4.2202,4.2185,4.221,4.2211,4.2206,4.2231,4.2232,4.2255,4.2224,4.2225,4.2225,0,4.2011,4.2027,4.2054,4.2074,4.2081,4.2094,4.2114,4.2128,4.2146,4.2152,4.2166,4.2172,4.2192,4.2186,4.2215,4.2204,4.2215,4.2223,4.2224,4.2227,4.2219,4.2235,4.2263,4.2267,4.223,4.223,4.223,0,4.2018,4.2047,4.2067,4.2076,4.2099,4.2109,4.2119,4.2136,4.2148,4.2166,4.2174,4.2194,4.2205,4.2221,4.2233,4.2227,4.2263,4.2256,4.227,4.227,4.2276,4.2276,4.2307,4.2283,4.2283,4.2283,4.2283,0,4.2037,4.2054,4.2071,4.2084,4.2104,4.2115,4.2135,4.2146,4.2162,4.2178,4.2185,4.22,4.2214,4.2233,4.2242,4.2267,4.2271,4.2278,4.2281,4.2278,4.2277,4.2285,4.2284,4.2284,4.2284,4.2284,4.2283,0,4.2048,4.206,4.2084,4.2104,4.211,4.2124,4.2143,4.2156,4.2167,4.2188,4.2193,4.2211,4.2233,4.2246,4.2274,4.2281,4.2308,4.2309,4.2302,4.2303,4.2316,4.2315,4.2353,4.236,4.2331,4.2331,4.2332,0,4.2059,4.2073,4.2095,4.2106,4.2117,4.2135,4.2147,4.216,4.2173,4.2196,4.2207,4.2229,4.2248,4.2283,4.2299,4.2321,4.2324,4.2336,4.2327,4.2325,4.2326,4.2325,4.2327,4.2337,4.2338,4.2338,4.2338,0,4.2078,4.2084,4.2101,4.2121,4.2136,4.2153,4.2169,4.2179,4.2194,4.2209,4.2231,4.2246,4.2275,4.2298,4.2322,4.2335,4.234,4.2341,4.2345,4.2343,4.2338,4.2342,4.2306,4.234,4.234,4.2339,4.2339,4.2339,4.209,4.2103,4.2122,4.2141,4.2155,4.2172,4.2186,4.2199,4.2218,4.2242,4.2249,4.2273,4.2294,4.2327,4.234,4.2361,4.2359,4.2365,4.2367,4.2368,4.2369,4.2335,4.2365,4.2365,4.2365,4.2365,4.2365,0,4.211,4.2123,4.2141,4.2164,4.2181,4.2184,4.2203,4.2217,4.2238,4.2256,4.2275,4.2303,4.2326,4.2345,4.2369,4.2382,4.2385,4.2388,4.2387,4.2391,4.2368,4.2363,4.2385,4.2385,4.2385,4.2385,4.2385,4.2385,4.2122,4.2145,4.2154,4.2184,4.2198,4.2221,4.2232,4.2248,4.2263,4.2293,4.2312,4.2324,4.2344,4.237,4.2393,4.2398,4.2407,4.241,4.2415,4.2394,4.2392,4.239,4.2384,4.2411,4.2411,4.2436,4.2436,4.2436]}]]